[ hide orbit diagram ]
For accurate long-term ephemerides, please instead use our Horizons system.This orbit viewer was implemented using two-body methods, and hence should not be used for determining accurate long-term trajectories (over several years or decades) or planetary encounter circumstances.
[ revert to old Java-based viewer ]
Orbital Elements at Epoch 2458600.5 (2019-Apr-27.0) TDB
Reference: JPL 29 (heliocentric ecliptic J2000)
Element | Value | Uncertainty (1-sigma) | Units |
e | .1830320538988902 | 3.9515e-08 | |
a | 3.097600986181543 | 1.6762e-08 | au |
q | 2.530640715521507 | 1.2578e-07 | au |
i | 2.861963340659084 | 4.7491e-06 | deg |
node | 45.36311100208118 | 8.8162e-05 | deg |
peri | 11.57892420290384 | 8.914e-05 | deg |
M | 358.9426124509332 | 1.3376e-05 | deg |
tp | 2458606.348820985545 (2019-May-02.84882099) | 7.401e-05 | TDB |
period | 1991.299743083365 5.45 | 1.6163e-05 4.425e-08 | d yr |
n | .1807864442560362 | 1.4674e-09 | deg/d |
Q | 3.664561256841578 | 1.983e-08 | au |
|
| | Orbit Determination Parameters
Additional Information
|
[ show covariance matrix ]
Physical Parameter Table
Parameter |
Symbol |
Value |
Units |
Sigma |
Reference |
Notes |
absolute magnitude |
H |
13.5 |
|
n/a |
MPO337456 |
|
diameter |
diameter |
10.047 |
km |
0.198 |
urn:nasa:pds:neowise_diameters_albedos::2.0[mainbelt] (http://adsabs.harvard.edu/abs/2011ApJ...741...68M) |
|
geometric albedo |
albedo |
0.084 |
|
0.004 |
urn:nasa:pds:neowise_diameters_albedos::2.0[mainbelt] (http://adsabs.harvard.edu/abs/2011ApJ...741...68M) |
|
|
23402 Turchina | Discovered 1969 Oct. 8 by L. I. Chernykh at the Crimean Astrophysical Observatory. |
Galina Petrovna Turchina (b. 1937) is a writer and dramatist at Moscow, author of several books, plays and scripts. She collaborates with the Maly Teatre, founded a publishing house, "Lazur" (Azure), and is the editor-in-chief of three magazines for youth and children. |
NOTE: some special characters may not display properly (any characters within {} are an attempt to place the proper accent above a character) |
Reference: 20040306/MPCPages.arc | Last Updated: 2004-03-08 |
|
[ show close-approach data ]
Alternate Designations
1969 TO2 = 1985 QM6 = 2000 KT22 |
|
|